GFSSW_925_temp_210.txt.gz
Temp
8 8 8 8 8 8 9 9 9 9 10 11 10 12 12 13 14 13 14 14 15 16 16 17 18 20 21 22 22 22 24 24 24 24 24 24 25 24 23 24 23 22 23 22 18
8 8 8 8 8 8 9 9 9 9 10 11 11 11 12 13 13 14 13 14 14 15 16 17 20 21 24 22 22 23 23 23 23 23 24 23 23 25 25 24 23 22 19 19 16
8 8 8 8 7 8 8 8 9 9 10 10 11 11 12 12 13 13 12 13 14 14 15 16 17 21 23 22 22 21 22 23 22 23 22 23 24 23 25 25 26 25 20 17 16
8 7 7 7 8 8 8 8 8 9 9 10 10 11 12 12 14 12 13 13 13 14 14 14 17 19 21 21 22 21 22 22 22 21 22 23 23 24 24 26 23 24 21 17 18
7 7 7 7 7 8 8 8 8 9 9 9 10 11 11 13 13 13 13 13 13 14 15 15 16 19 21 21 21 21 22 22 22 21 22 21 24 24 24 25 22 22 20 18 18
7 7 7 7 7 8 8 8 8 9 9 9 10 11 11 13 12 12 13 12 14 14 14 16 16 16 18 19 20 22 22 22 22 22 22 23 24 22 23 22 22 21 21 19 18
8 7 7 7 7 7 7 8 8 8 9 9 10 10 11 14 12 12 13 13 13 14 15 14 15 18 17 17 16 16 20 21 22 22 23 22 24 23 22 21 22 22 21 21 20
7 7 7 7 7 7 8 7 8 8 9 9 10 10 13 11 12 12 13 13 13 14 14 14 14 15 16 15 15 15 16 19 22 21 22 22 23 24 22 22 23 22 22 20 21
7 7 7 7 7 7 7 7 8 8 8 9 9 11 12 11 11 12 13 13 13 13 13 13 14 16 15 17 16 14 17 17 21 20 21 22 23 23 21 21 23 23 22 21 21
7 7 7 7 8 7 7 8 8 8 9 9 9 11 12 12 11 11 12 12 13 13 13 14 14 15 15 18 17 16 17 18 18 20 19 22 22 23 22 21 23 22 22 21 21
7 7 7 7 7 7 7 8 9 9 9 10 11 11 11 11 11 11 11 12 13 14 15 14 14 15 16 18 16 18 17 17 17 17 19 21 22 23 22 22 23 23 22 21 21
7 7 7 7 7 7 7 8 8 8 9 8 9 10 10 10 12 12 11 13 13 14 14 14 15 15 16 16 16 15 17 18 16 15 16 19 20 21 21 22 22 23 22 21 20
7 7 7 7 7 6 7 7 7 6 9 9 9 10 11 11 12 12 12 13 13 14 13 15 16 17 16 15 16 16 17 17 18 15 16 18 19 20 21 20 18 18 18 20 20
7 7 7 6 6 6 7 7 7 7 8 9 8 10 11 12 11 11 12 13 13 14 14 14 16 16 16 16 16 16 17 17 15 17 17 18 19 20 22 20 17 16 17 17 16
7 7 7 7 6 6 6 7 7 7 8 8 9 9 10 11 11 11 10 13 13 13 14 15 15 15 16 17 17 16 16 16 16 15 15 16 16 21 20 19 18 15 14 14 14
7 7 7 6 6 6 6 7 7 8 7 8 9 9 10 11 11 11 12 12 10 12 13 15 13 15 17 17 17 15 15 14 14 15 15 16 16 18 18 20 17 14 13 12 12
7 7 7 7 7 7 7 7 8 8 6 7 8 9 10 10 11 11 11 11 11 11 11 13 13 13 13 16 14 16 15 14 15 15 16 14 16 18 18 17 16 14 12 12 12
7 7 6 6 6 7 7 8 6 3 5 6 7 7 9 10 10 11 10 11 10 11 11 12 12 14 14 15 15 14 15 17 17 16 17 12 15 18 15 16 15 13 12 12 11
7 7 6 6 6 7 6 7 7 5 5 6 6 8 8 9 9 9 9 11 11 10 13 12 12 11 12 12 15 14 13 14 14 10 15 15 15 14 14 13 13 12 12 11 10
7 6 5 5 6 6 6 7 5 6 5 5 7 7 8 8 8 9 9 9 11 11 11 12 12 10 11 11 12 14 14 13 13 14 15 15 15 19 13 13 12 12 11 10 8
8 7 5 5 5 5 7 6 5 5 6 6 6 7 7 8 8 8 9 8 10 10 11 10 12 10 10 11 11 11 12 11 14 13 15 16 17 14 15 14 13 12 10 8 6
5 6 5 5 6 0 4 4 5 6 5 5 6 6 7 7 8 9 9 8 9 11 10 10 10 11 11 8 9 10 12 13 16 12 13 13 16 11 12 14 13 11 8 7 6
5 5 4 5 6 4 3 5 5 6 5 5 6 6 6 6 8 8 8 9 8 10 9 9 10 11 10 10 8 10 10 12 13 13 13 15 18 11 12 14 13 10 8 6 5
5 6 4 3 1 4 3 5 5 6 6 4 5 5 6 6 6 8 7 8 8 10 9 9 9 11 14 13 12 10 10 10 12 12 14 15 15 11 11 12 10 9 8 6 5
2 3 -1 6 4 3 4 4 5 5 5 5 5 5 5 7 7 7 7 7 8 9 9 9 9 10 10 10 11 12 11 9 11 13 14 15 15 14 11 11 10 10 8 7 6
4 3 -1 -0 1 5 3 4 4 3 4 5 5 5 6 6 6 6 7 7 8 7 9 9 9 9 8 10 11 10 11 11 11 12 12 13 13 13 12 11 10 9 8 7 7
0 1 5 1 2 5 5 4 5 5 4 4 4 5 4 4 3 3 4 5 7 7 8 8 8 8 11 9 10 10 11 11 12 12 14 13 15 11 10 10 9 9 9 8 7

GFSSW_925_temp_216.txt.gz
Temp
8 8 8 8 8 8 8 9 9 9 10 11 11 11 12 12 13 13 14 14 14 15 15 17 19 20 21 23 24 24 21 24 25 27 25 26 27 27 27 25 26 24 23 21 18
8 8 8 8 8 8 8 8 9 9 9 11 11 11 11 12 12 13 14 14 14 14 15 15 19 21 21 23 23 22 22 24 25 26 25 25 25 27 26 25 24 22 19 18 17
8 8 8 8 8 8 8 8 8 8 9 9 10 11 11 12 12 14 13 14 14 14 14 14 15 20 20 22 22 23 22 25 25 22 24 26 26 26 26 25 25 22 19 18 18
8 8 8 8 8 8 8 8 8 8 8 8 10 10 11 11 13 13 13 13 13 13 13 14 15 18 19 20 23 21 23 25 24 23 24 25 25 26 26 24 25 24 20 18 18
8 8 8 8 7 7 7 7 8 8 8 8 9 10 10 13 14 13 13 13 13 13 14 14 15 18 19 21 22 21 23 24 24 23 24 24 25 24 26 25 25 22 18 18 19
8 8 8 8 7 7 7 7 7 7 9 9 9 9 10 12 13 13 13 12 13 13 15 15 15 15 18 20 21 23 22 23 23 23 24 23 24 25 24 25 23 22 19 19 20
8 8 8 8 8 7 7 7 7 8 8 9 9 9 12 14 13 12 12 12 13 12 13 15 15 15 16 18 19 22 21 22 23 23 23 24 22 23 24 25 23 23 21 20 21
8 8 8 8 8 8 8 7 8 8 9 8 9 9 11 14 13 13 12 12 12 13 12 13 13 15 15 15 17 19 19 19 22 23 23 23 22 24 24 24 24 23 21 21 21
8 8 8 8 8 8 8 8 8 8 9 9 9 11 12 13 13 14 13 13 12 12 12 12 13 14 14 16 16 17 18 18 21 22 23 21 22 25 24 24 25 23 22 21 20
8 8 8 8 8 8 8 8 9 8 10 9 10 11 13 14 14 13 13 13 13 12 13 13 13 15 15 16 16 17 18 18 19 20 22 21 21 23 23 24 24 25 22 21 21
8 8 8 8 7 8 8 9 9 9 10 11 11 12 13 14 12 13 13 13 13 14 13 14 15 16 16 17 17 18 18 18 18 15 16 20 21 22 23 24 23 24 22 21 21
8 8 8 7 7 7 8 10 9 8 8 12 12 12 12 12 13 14 13 13 13 13 14 13 14 14 15 17 16 16 17 17 15 14 15 17 20 22 23 23 23 23 23 21 22
8 8 7 7 7 7 8 9 8 8 9 12 12 12 13 12 13 14 13 14 14 14 14 13 14 14 15 15 16 16 17 16 17 14 14 15 17 19 22 23 22 21 21 21 18
7 8 7 7 7 9 9 8 8 8 8 10 10 12 12 13 12 14 14 15 14 14 15 14 14 14 14 15 15 16 16 16 15 16 16 16 16 18 21 21 20 19 20 17 16
8 8 8 7 8 9 7 7 8 8 7 10 11 11 12 12 12 13 13 14 13 14 15 15 15 14 13 14 14 14 16 16 15 15 15 15 16 18 21 21 18 18 18 15 14
8 7 7 7 8 7 7 7 8 7 7 7 10 11 11 12 13 12 13 13 13 14 14 15 15 16 15 15 14 14 14 14 14 14 15 16 16 18 20 20 18 15 15 14 12
7 7 7 7 7 6 7 8 7 6 8 7 8 10 11 11 12 10 12 12 12 10 11 14 15 15 15 15 14 15 14 14 14 14 14 16 16 17 19 18 16 14 13 12 11
7 7 6 6 6 7 8 6 6 6 6 8 8 8 9 12 12 10 9 11 11 11 12 11 11 14 15 16 15 15 15 15 15 14 15 13 15 17 16 16 15 13 12 11 9
7 7 7 6 7 8 7 6 7 5 5 6 7 7 8 8 11 10 9 10 11 10 12 12 13 13 13 14 14 14 14 14 14 12 13 15 15 16 15 13 13 12 11 9 8
8 8 6 6 7 8 5 7 6 6 7 7 7 7 7 8 9 10 9 10 11 12 10 12 11 11 12 13 13 14 13 13 12 12 14 14 16 17 13 13 12 11 11 9 8
9 7 6 6 7 4 6 6 6 7 6 7 6 6 7 8 7 9 8 10 11 12 11 11 12 10 12 12 13 13 13 13 13 13 13 14 16 14 15 13 12 11 11 9 8
9 5 6 6 6 3 5 5 6 7 5 6 6 7 6 7 7 7 8 10 10 11 10 11 10 11 10 9 9 11 14 14 13 13 13 13 15 13 14 13 12 12 10 9 7
7 6 6 6 6 5 5 5 6 7 6 6 6 7 6 6 7 7 8 10 9 10 10 11 10 10 10 10 9 10 12 13 14 13 12 13 15 13 13 13 12 10 8 7 6
8 4 3 5 5 4 5 6 6 8 7 6 5 6 6 6 6 7 9 9 8 8 10 10 10 11 11 12 10 10 11 12 12 11 12 13 14 12 12 13 12 8 8 7 5
6 4 2 5 5 6 5 6 6 5 7 7 6 6 6 6 7 7 8 8 8 8 9 9 10 10 11 12 13 12 11 11 12 13 13 15 15 16 12 13 12 9 8 6 5
6 4 1 2 3 6 5 5 6 5 5 6 5 6 6 6 5 6 6 7 8 8 8 8 9 11 9 12 12 12 12 12 12 13 13 13 14 16 13 12 10 9 8 7 6
6 5 5 5 4 5 6 5 6 6 5 5 4 5 6 4 3 3 3 4 6 7 7 8 7 8 8 9 10 7 10 12 12 12 13 12 14 13 13 13 11 9 8 7 7

GFSSW_925_temp_219.txt.gz
Temp
8 8 8 8 8 8 8 8 8 9 9 9 9 10 11 12 12 13 13 15 15 15 15 16 17 19 20 20 22 22 19 20 24 21 21 23 24 24 25 22 21 19 19 19 20
8 8 8 8 8 8 8 8 8 8 8 9 9 10 11 11 11 12 14 14 14 14 14 15 18 20 19 21 21 20 19 22 23 22 22 24 24 24 23 22 19 17 17 18 19
8 8 8 8 8 8 8 8 8 9 9 9 9 9 10 10 11 13 14 14 14 14 14 14 15 18 19 20 20 21 20 23 22 22 22 24 24 25 23 23 20 17 17 17 17
8 8 8 8 8 7 7 7 7 7 8 9 10 9 10 10 10 13 13 13 13 14 13 13 15 17 18 18 20 20 22 23 23 22 23 23 22 24 24 23 23 18 17 18 17
8 8 8 8 8 7 7 7 7 8 8 8 8 9 9 10 12 13 13 13 12 13 13 14 15 17 17 19 20 20 21 23 22 23 23 22 22 23 21 19 19 18 17 16 17
8 8 8 8 8 7 7 7 7 7 8 9 8 8 9 9 13 13 13 12 13 12 13 13 15 15 16 19 19 20 21 22 21 22 23 22 22 24 21 19 17 17 16 16 17
8 8 8 8 8 8 7 7 7 8 8 9 9 8 9 9 13 13 13 12 12 13 13 13 14 15 15 17 19 19 19 21 21 21 22 22 22 23 21 20 19 17 17 17 17
8 8 8 8 8 8 7 8 8 8 9 9 8 8 8 13 13 13 13 12 12 12 12 13 13 14 15 14 17 17 18 18 21 21 21 21 20 22 21 20 19 18 17 18 18
8 8 8 8 8 8 8 8 9 8 8 9 8 9 9 13 12 13 13 13 12 12 12 12 12 14 14 15 16 16 17 18 19 21 20 21 20 23 22 22 19 18 18 18 18
8 8 8 8 8 8 8 9 9 8 10 9 9 8 10 12 13 13 13 13 12 12 13 13 13 14 15 15 16 17 17 18 18 19 20 19 20 22 22 22 20 19 19 18 18
8 8 8 8 8 8 8 9 8 7 8 8 10 10 12 12 13 13 13 13 13 12 13 13 14 13 16 16 17 18 18 18 17 15 19 18 19 20 22 22 22 17 19 19 18
8 8 8 8 8 8 8 7 8 8 7 9 10 11 11 12 11 12 13 11 11 12 13 13 12 12 13 15 15 16 17 17 15 14 17 17 18 19 20 21 21 20 17 19 17
8 8 8 8 8 8 8 8 8 8 7 9 10 11 11 12 11 12 12 11 12 12 13 13 12 12 12 14 15 16 16 17 17 14 14 16 17 18 19 21 19 18 17 18 16
8 8 8 8 7 8 8 8 8 8 6 7 9 10 11 12 11 13 13 12 12 12 13 13 13 12 12 12 14 16 16 16 16 16 16 17 17 17 19 19 19 17 15 14 12
8 8 8 7 8 8 7 8 8 8 1 10 10 11 11 10 11 12 13 12 12 13 13 14 12 12 12 11 14 15 16 16 16 15 15 15 15 18 19 18 17 14 12 11 11
8 7 7 7 8 7 7 7 7 2 2 5 9 9 10 10 11 11 11 11 12 12 14 14 14 13 13 12 13 13 14 13 13 14 14 15 16 16 17 18 16 13 11 10 9
7 7 7 7 6 7 7 7 2 1 5 4 6 8 8 10 11 10 9 10 9 9 9 13 13 14 14 13 12 13 13 13 14 14 15 15 15 17 16 18 15 12 10 9 8
7 7 6 6 7 7 7 2 1 -2 -1 6 7 7 7 10 11 9 8 10 10 11 10 10 11 14 14 14 14 13 12 13 15 15 14 13 15 16 15 14 13 12 9 8 7
7 7 7 7 7 8 3 -0 1 1 2 3 5 7 2 6 10 9 8 9 10 10 10 9 12 13 12 12 15 13 13 14 13 10 12 13 15 14 13 12 11 10 8 7 7
8 7 6 7 7 7 2 4 3 6 5 5 4 4 7 1 6 7 8 9 10 11 10 10 10 10 12 13 13 14 13 13 12 11 13 14 15 16 12 11 10 9 8 7 6
8 4 6 6 7 2 3 5 5 7 5 6 5 4 6 7 5 8 6 9 11 10 9 9 10 10 12 11 12 13 13 12 13 11 12 14 14 14 13 12 11 10 8 7 6
6 1 6 6 2 3 5 5 6 7 5 5 5 6 3 5 8 7 6 8 9 9 9 10 9 11 10 9 9 10 13 13 14 13 12 13 14 12 12 12 11 10 8 7 7
2 2 5 6 -1 4 5 4 6 6 5 6 6 6 5 6 6 7 6 9 7 9 9 9 9 10 9 9 9 10 11 12 13 12 12 13 14 12 11 11 11 9 8 7 6
2 0 2 3 3 3 5 5 6 8 7 5 5 5 6 6 6 6 7 9 8 8 8 10 9 9 9 11 10 9 10 11 12 11 11 12 14 12 11 10 10 8 7 7 6
1 3 1 -0 1 5 5 6 5 4 6 6 5 5 5 4 6 6 6 8 8 8 9 9 9 9 10 11 12 11 11 10 11 13 13 14 14 14 12 11 10 8 7 6 6
1 -0 -3 -1 1 4 2 0 4 2 5 5 4 5 5 4 5 5 5 6 7 8 7 8 8 8 8 10 11 11 12 11 12 12 12 12 12 13 12 10 8 8 8 7 6
5 4 2 5 1 1 2 2 5 5 5 5 4 4 5 4 4 4 3 3 5 6 7 7 6 8 10 7 8 7 9 12 12 12 12 11 13 14 12 11 8 8 8 7 7

GFSSW_925_temp_222.txt.gz
Temp
8 8 8 8 8 8 8 8 8 9 9 9 9 10 11 10 11 12 12 15 15 16 15 16 17 18 19 20 21 21 19 18 21 20 22 22 23 23 22 20 17 16 18 19 19
8 8 8 8 8 8 8 8 8 8 9 10 9 9 10 10 11 10 14 15 15 15 15 15 17 17 18 19 20 19 17 20 22 21 21 22 22 22 22 19 16 17 17 20 18
8 8 8 8 7 7 7 7 7 8 8 8 9 9 10 10 10 12 14 14 14 14 15 15 14 16 17 19 19 19 19 21 22 22 22 23 22 23 20 21 18 17 17 17 17
8 8 8 8 7 7 7 7 7 7 7 8 8 8 9 11 9 12 12 13 13 13 14 13 14 16 17 18 19 20 20 21 22 22 22 22 22 23 21 22 20 17 17 17 16
8 8 8 8 8 7 7 7 7 7 7 7 8 8 9 9 10 13 12 13 13 13 13 14 15 16 17 18 19 19 20 22 21 22 22 22 22 23 21 17 17 16 17 17 16
8 8 8 8 8 7 7 7 7 7 7 8 8 8 8 7 12 13 12 13 13 12 13 13 15 15 16 18 19 19 20 21 21 22 22 22 22 22 18 16 16 16 16 16 16
8 8 8 8 8 8 8 8 8 8 8 8 7 8 8 8 13 12 12 12 13 13 13 13 13 14 15 16 18 19 19 20 20 21 21 21 21 21 17 17 16 16 15 16 16
8 8 8 8 8 8 8 8 8 8 8 8 7 7 7 12 12 12 13 12 13 13 12 12 12 13 15 15 17 17 17 17 21 20 21 20 20 21 18 17 16 16 15 16 16
8 8 8 8 8 8 8 9 9 9 9 8 8 8 7 11 12 13 13 12 13 13 13 12 12 14 14 15 16 16 17 17 19 20 20 20 20 21 19 19 17 16 16 16 17
8 8 8 8 8 8 8 9 9 8 9 9 8 8 9 11 12 12 13 12 12 11 12 12 12 13 13 14 17 16 17 18 18 20 20 19 20 20 19 19 17 16 17 17 17
8 8 8 8 8 8 9 9 7 7 8 8 8 8 10 11 12 12 13 12 12 12 12 12 12 13 13 13 13 17 17 17 19 17 19 19 20 20 20 19 17 17 16 17 17
8 8 8 8 8 8 8 7 8 7 7 8 8 8 10 10 10 11 12 10 11 11 12 12 12 12 13 13 12 13 16 17 17 15 18 18 19 19 19 20 19 18 17 17 15
8 8 8 8 8 8 8 7 7 8 6 7 9 10 10 11 10 11 10 10 10 10 12 12 13 12 12 11 11 12 16 17 17 15 15 17 17 17 19 18 19 19 18 16 15
8 8 8 8 8 8 7 7 7 7 1 6 9 10 10 10 9 12 12 11 10 11 12 11 13 13 12 11 10 12 16 17 15 16 16 17 17 17 19 18 18 16 16 14 12
8 8 8 7 7 7 7 7 7 7 1 8 9 11 10 9 10 10 13 11 10 11 12 12 12 12 12 12 11 11 11 15 16 17 17 15 16 18 19 19 16 15 13 12 11
8 8 7 7 7 6 7 7 7 1 1 4 7 8 8 9 10 11 9 11 11 11 12 12 12 13 13 12 11 11 12 15 15 15 15 15 17 17 17 18 16 13 12 11 9
8 7 7 7 7 7 7 6 1 1 3 4 4 7 7 8 10 9 8 8 10 7 7 12 12 12 13 12 11 10 10 13 14 14 15 15 15 16 17 16 16 13 10 9 8
7 7 7 6 6 7 7 1 0 -4 2 4 5 6 6 8 9 9 9 8 10 10 8 10 10 12 13 13 12 10 9 13 15 15 14 14 14 16 13 14 14 11 9 8 7
7 7 7 7 7 7 2 -1 0 -1 1 4 4 6 2 5 6 8 8 8 9 10 10 8 11 11 12 12 13 12 11 11 12 10 14 13 13 13 11 10 10 9 8 7 6
7 7 6 6 7 7 1 3 1 6 5 5 4 4 3 3 5 5 6 8 9 10 10 10 10 10 11 12 12 13 13 12 11 14 14 13 14 15 11 10 9 8 7 7 6
7 3 6 6 7 1 0 3 5 7 5 6 5 5 4 4 6 8 4 8 9 7 10 9 10 10 10 11 12 12 13 13 13 12 13 14 14 13 13 11 9 8 7 6 5
5 1 5 6 1 4 5 6 6 7 5 5 5 5 5 4 7 7 6 6 8 8 8 10 9 10 10 9 9 10 12 13 13 12 12 13 15 12 12 11 10 8 7 6 6
2 1 5 6 -1 -3 5 4 6 6 5 6 6 6 5 5 6 6 6 8 7 9 7 9 9 10 10 10 10 10 11 12 12 12 12 14 14 11 10 10 10 7 6 6 6
2 1 -1 1 2 5 5 5 5 8 7 6 4 5 5 4 6 6 6 8 8 8 9 9 9 9 10 10 10 10 10 11 12 11 12 13 13 11 10 9 8 7 6 7 6
-0 -2 -2 -2 -1 4 5 6 5 5 6 6 4 5 5 3 5 6 7 7 8 8 8 9 8 9 9 10 11 11 11 10 11 13 13 14 14 13 11 10 9 7 6 6 5
1 -1 -1 -3 2 3 3 -1 3 1 4 5 4 5 5 4 4 4 4 5 6 7 7 7 8 8 8 9 10 12 11 10 10 11 12 12 12 13 10 8 7 7 7 6 6
3 2 1 1 -0 0 1 1 5 5 4 4 4 4 4 4 3 3 3 3 4 5 7 7 5 4 5 7 7 6 9 10 11 11 12 12 13 13 10 9 8 7 7 7 6